Hourly Data Report for August 09, 2013

All times are specified in Local Standard Time (LST). Add 1 hour to adjust for Daylight Saving Time where and when it is observed.

VICTORIA INTL A
BRITISH COLUMBIA

48°38'50.000" N
123°25'33.000" W
19.50 m
1018621
71799
YYJ

Download Data

Hourly Data (August 2013)
Hourly Data Report for August 9, 2013
Temp Definition
°C
Dew Point Temp Definition
°C
Rel Hum Definition
%
Wind Dir Definition
10's deg

Wind Spd Definition
km/h
Visibility Definition
km
Stn Press Definition
kPa
Hmdx Definition


Wind Chill Definition


Weather Definition


TIME
00:00 Legend Double Dagger 14.4 10.3 76 7 3 48.3 101.20     LegendNANA
01:00 Legend Double Dagger 13.0 10.7 86 11 6 48.3 101.20     Clear
02:00 Legend Double Dagger 12.7 10.8 88 13 6 48.3 101.21     LegendNANA
03:00 Legend Double Dagger 12.3 10.6 89 15 5 48.3 101.19     LegendNANA
04:00 Legend Double Dagger 11.8 10.7 93 10 5 48.3 101.18     Clear
05:00 Legend Double Dagger 11.1 10.5 96 13 3 48.3 101.19     LegendNANA
06:00 Legend Double Dagger 12.5 11.1 91 25 3 48.3 101.18     LegendNANA
07:00 Legend Double Dagger 15.2 12.0 81 12 5 48.3 101.21     Mainly Clear
08:00 Legend Double Dagger 16.4 11.6 73 9 6 48.3 101.19     LegendNANA
09:00 Legend Double Dagger 20.1 12.5 61 12 9 48.3 101.16     LegendNANA
10:00 Legend Double Dagger 21.5 13.8 61 8 7 48.3 101.15 25   Clear
11:00 Legend Double Dagger 20.2 13.3 64 10 6 48.3 101.11     LegendNANA
12:00 Legend Double Dagger 24.0 14.6 55 8 8 48.3 101.04 28   LegendNANA
13:00 Legend Double Dagger 23.3 13.9 55 11 11 48.3 101.00 27   Clear
14:00 Legend Double Dagger 23.1 13.7 55 13 14 48.3 100.96 26   LegendNANA
15:00 Legend Double Dagger 24.0 14.0 53 12 15 48.3 100.91 27   LegendNANA
16:00 Legend Double Dagger 24.2 14.2 53 11 11 48.3 100.85 28   Mainly Clear
17:00 Legend Double Dagger 23.1 13.4 54 8 14 48.3 100.78 26   LegendNANA
18:00 Legend Double Dagger 20.9 12.2 57 10 9 48.3 100.75     LegendNANA
19:00 Legend Double Dagger 17.7 11.4 66 11 13 48.3 100.78     Mainly Clear
20:00 Legend Double Dagger 15.5 10.9 74 12 10 48.3 100.81     LegendNANA
21:00 Legend Double Dagger 13.7 10.5 81 12 10 48.3 100.87     LegendNANA
22:00 Legend Double Dagger 13.4 10.6 83 13 5 48.3 100.85     Mainly Clear
23:00 Legend Double Dagger 14.2 10.5 78 12 10 48.3 100.85     LegendNANA

Notes on Data Quality.

Legend

  • E = Estimated
  • M = Missing
  • NA = Not Available
  • ‡ = Partner data that is not subject to review by the National Climate Archives
Date modified: